,,PA_Meas_PMT16A,,PR_Meas_QMR101_102,,RH_Meas_QMH101,,SR_Meas_QMS101,,TA_Meas_QMH101,,GenWind,,GenWind,
time,status,PA,status,PR,status,RH,status,SR,status,TA,status,DirAvg,status,SpdAvg,
2010-03-08, 00:00:04,VALID,919.225,VALID,0,VALID,95.7349,VALID,0,VALID,22.081,VALID,17,VALID,0.389062,
2010-03-08, 00:01:04,VALID,919.221,VALID,0,VALID,95.7882,VALID,0,VALID,22.081,VALID,17,VALID,0.457422,
2010-03-08, 00:02:04,VALID,919.211,VALID,0,VALID,95.9026,VALID,0.107441,VALID,22.0598,VALID,17,VALID,0.304297,
2010-03-08, 00:03:04,VALID,919.162,VALID,0,VALID,95.7577,VALID,0,VALID,22.0615,VALID,17,VALID,0.373437,
2010-03-08, 00:04:04,VALID,919.13,VALID,0,VALID,95.7349,VALID,0.107441,VALID,22.0403,VALID,17,VALID,0.458984,
2010-03-08, 00:05:04,VALID,919.115,VALID,0,VALID,95.7501,VALID,0,VALID,22.0225,VALID,17,VALID,0.383984,
2010-03-08, 00:06:04,VALID,919.093,VALID,0,VALID,95.8797,VALID,0,VALID,22.042,VALID,17,VALID,0.376563,
2010-03-08, 00:07:04,VALID,919.096,VALID,0,VALID,95.8797,VALID,0.107441,VALID,22.0615,VALID,17,VALID,0.705078,
2010-03-08, 00:08:04,VALID,919.066,VALID,0,VALID,95.895,VALID,0,VALID,22.0615,VALID,17,VALID,0.242188,
2010-03-08, 00:09:04,VALID,919.06,VALID,0,VALID,95.9331,VALID,0.107441,VALID,22.0615,VALID,17,VALID,0.514844,
2010-03-08, 00:10:04,VALID,919.007,VALID,0,VALID,95.8797,VALID,0,VALID,22.0615,VALID,17,VALID,0.358203,
2010-03-08, 00:11:04,VALID,918.943,VALID,0,VALID,95.9178,VALID,0,VALID,22.0615,VALID,17,VALID,0.0921875,
2010-03-08, 00:12:04,VALID,918.926,VALID,0,VALID,96.0169,VALID,0,VALID,22.081,VALID,17,VALID,0,
2010-03-08, 00:13:04,VALID,918.896,VALID,0,VALID,96.0398,VALID,0,VALID,22.0989,VALID,17,VALID,0,
2010-03-08, 00:14:04,VALID,918.849,VALID,0,VALID,96.0474,VALID,0,VALID,22.1201,VALID,17,VALID,0,
2010-03-08, 00:15:04,VALID,918.846,VALID,0,VALID,96.0322,VALID,0,VALID,22.1396,VALID,17,VALID,0,
2010-03-08, 00:16:04,VALID,918.82,VALID,0,VALID,95.9864,VALID,0,VALID,22.1379,VALID,17,VALID,0.121875,
2010-03-08, 00:17:04,VALID,918.767,VALID,0,VALID,95.8873,VALID,0,VALID,22.1201,VALID,17,VALID,0.435937,
2010-03-08, 00:18:04,VALID,918.75,VALID,0,VALID,95.8568,VALID,0,VALID,22.1201,VALID,17,VALID,0.258203,
2010-03-08, 00:19:04,VALID,918.72,VALID,0,VALID,95.8721,VALID,0.107441,VALID,22.0794,VALID,17,VALID,0.201562,
2010-03-08, 00:20:04,VALID,918.674,VALID,0,VALID,95.895,VALID,0,VALID,22.081,VALID,17,VALID,0.335938,
2010-03-08, 00:21:04,VALID,918.648,VALID,0,VALID,95.9254,VALID,0.107441,VALID,22.081,VALID,17,VALID,0.109375,
2010-03-08, 00:22:04,VALID,918.613,VALID,0,VALID,95.9941,VALID,0.107441,VALID,22.1005,VALID,17,VALID,0.530078,
2010-03-08, 00:23:04,VALID,918.598,VALID,0,VALID,96.0779,VALID,0,VALID,22.1201,VALID,17,VALID,0.285937,
2010-03-08, 00:24:04,VALID,918.582,VALID,0,VALID,96.0017,VALID,0.107441,VALID,22.1005,VALID,17,VALID,0.292578,
2010-03-08, 00:25:04,VALID,918.548,VALID,0,VALID,96.0627,VALID,0,VALID,22.1005,VALID,17,VALID,0.614844,
2010-03-08, 00:26:04,VALID,918.479,VALID,0,VALID,95.8721,VALID,0,VALID,22.0615,VALID,17,VALID,0.614844,
2010-03-08, 00:27:04,VALID,918.432,VALID,0,VALID,95.8492,VALID,0.107441,VALID,22.0225,VALID,17,VALID,0.796484,
2010-03-08, 00:28:04,VALID,918.399,VALID,0,VALID,95.8263,VALID,0,VALID,21.9835,VALID,17,VALID,0.727734,
2010-03-08, 00:29:04,VALID,918.375,VALID,0,VALID,95.8645,VALID,0,VALID,21.9233,VALID,17,VALID,1.15586,
2010-03-08, 00:30:04,VALID,918.348,VALID,0,VALID,95.9483,VALID,0,VALID,21.9249,VALID,17,VALID,0.785547,
2010-03-08, 00:31:04,VALID,918.313,VALID,0,VALID,95.9331,VALID,0.107441,VALID,21.9233,VALID,17,VALID,1.05938,
2010-03-08, 00:32:04,VALID,918.349,VALID,0,VALID,95.8416,VALID,0,VALID,21.9054,VALID,355,VALID,0.893359,
2010-03-08, 00:33:04,VALID,918.328,VALID,0,VALID,95.8873,VALID,0,VALID,21.8859,VALID,355,VALID,0.791797,
2010-03-08, 00:34:04,VALID,918.32,VALID,0,VALID,95.9331,VALID,0,VALID,21.8257,VALID,341,VALID,1.18203,
2010-03-08, 00:35:04,VALID,918.349,VALID,0,VALID,96.0093,VALID,0,VALID,21.8485,VALID,338,VALID,0.692578,
2010-03-08, 00:36:04,VALID,918.365,VALID,0,VALID,96.0932,VALID,0,VALID,21.8274,VALID,338,VALID,0.449609,
2010-03-08, 00:37:04,VALID,918.363,VALID,0,VALID,96.1541,VALID,0,VALID,21.8469,VALID,338,VALID,0.169922,
2010-03-08, 00:38:04,VALID,918.371,VALID,0,VALID,96.1846,VALID,0.107441,VALID,21.8469,VALID,338,VALID,0.253906,
2010-03-08, 00:39:04,VALID,918.369,VALID,0,VALID,96.1236,VALID,0,VALID,21.8274,VALID,338,VALID,0.470703,
2010-03-08, 00:40:04,VALID,918.369,VALID,0,VALID,96.1694,VALID,0,VALID,21.8257,VALID,338,VALID,0.162891,
2010-03-08, 00:41:04,VALID,918.346,VALID,0,VALID,96.1999,VALID,0,VALID,21.8859,VALID,338,VALID,0.107813,
2010-03-08, 00:42:04,VALID,918.349,VALID,0,VALID,96.1008,VALID,0,VALID,21.8681,VALID,338,VALID,0.198437,
2010-03-08, 00:43:04,VALID,918.333,VALID,0,VALID,96.0932,VALID,0,VALID,21.8469,VALID,338,VALID,0.389453,
2010-03-08, 00:44:04,VALID,918.339,VALID,0,VALID,96.0474,VALID,0.107441,VALID,21.8664,VALID,338,VALID,0.445313,
2010-03-08, 00:45:04,VALID,918.326,VALID,0,VALID,96.055,VALID,0,VALID,21.8469,VALID,338,VALID,0.428516,
2010-03-08, 00:46:04,VALID,918.344,VALID,0,VALID,96.1008,VALID,0,VALID,21.8664,VALID,338,VALID,0.303516,
2010-03-08, 00:47:04,VALID,918.338,VALID,0,VALID,96.1236,VALID,0,VALID,21.8664,VALID,338,VALID,0.401953,
2010-03-08, 00:48:04,VALID,918.341,VALID,0,VALID,96.1465,VALID,0.107441,VALID,21.9054,VALID,338,VALID,0.435937,
2010-03-08, 00:49:04,VALID,918.309,VALID,0,VALID,96.1008,VALID,0,VALID,21.8859,VALID,338,VALID,0.288672,
2010-03-08, 00:50:04,VALID,918.291,VALID,0,VALID,96.0627,VALID,0,VALID,21.8664,VALID,338,VALID,0.0929687,
2010-03-08, 00:51:04,VALID,918.299,VALID,0,VALID,96.0932,VALID,0,VALID,21.8859,VALID,338,VALID,0.320313,
2010-03-08, 00:52:04,VALID,918.281,VALID,0,VALID,95.834,VALID,0,VALID,21.8469,VALID,338,VALID,0.775391,
2010-03-08, 00:53:04,VALID,918.283,VALID,0,VALID,95.4147,VALID,0,VALID,21.7688,VALID,338,VALID,0.409766,
2010-03-08, 00:54:04,VALID,918.297,VALID,0,VALID,94.9801,VALID,0,VALID,21.7688,VALID,306,VALID,1.00586,
2010-03-08, 00:55:04,VALID,918.306,VALID,0,VALID,94.82,VALID,0,VALID,21.8079,VALID,306,VALID,0.498828,
2010-03-08, 00:56:04,VALID,918.324,VALID,0,VALID,94.7743,VALID,0.107441,VALID,21.8274,VALID,306,VALID,0.463281,
2010-03-08, 00:57:04,VALID,918.352,VALID,0,VALID,94.8887,VALID,0,VALID,21.8469,VALID,306,VALID,0.361328,
2010-03-08, 00:58:04,VALID,918.325,VALID,0,VALID,94.8963,VALID,0.107441,VALID,21.8664,VALID,306,VALID,0.485156,
2010-03-08, 00:59:04,VALID,918.361,VALID,0,VALID,95.0411,VALID,0,VALID,21.8664,VALID,306,VALID,0.237109,
2010-03-08, 01:00:04,VALID,918.336,VALID,0,VALID,95.1174,VALID,0.107441,VALID,21.8859,VALID,306,VALID,0.298438,
2010-03-08, 01:01:04,VALID,918.286,VALID,0,VALID,95.1631,VALID,0.107441,VALID,21.8859,VALID,306,VALID,0.115625,
2010-03-08, 01:02:04,VALID,918.257,VALID,0,VALID,95.186,VALID,0,VALID,21.8859,VALID,306,VALID,0,
2010-03-08, 01:03:04,VALID,918.28,VALID,0,VALID,95.2088,VALID,0.107441,VALID,21.9054,VALID,306,VALID,0,
2010-03-08, 01:04:04,VALID,918.234,VALID,0,VALID,95.2546,VALID,0,VALID,21.9054,VALID,306,VALID,0,
2010-03-08, 01:05:04,VALID,918.212,VALID,0,VALID,95.064,VALID,0,VALID,21.8859,VALID,306,VALID,0.347656,
2010-03-08, 01:06:04,VALID,918.193,VALID,0,VALID,95.1174,VALID,0,VALID,21.8664,VALID,306,VALID,0.128906,
2010-03-08, 01:07:04,VALID,918.203,VALID,0,VALID,95.0335,VALID,0,VALID,21.8664,VALID,306,VALID,0.442969,
2010-03-08, 01:08:04,VALID,918.2,VALID,0,VALID,95.064,VALID,0.107441,VALID,21.8274,VALID,306,VALID,0.780859,
2010-03-08, 01:09:04,VALID,918.183,VALID,0,VALID,95.1326,VALID,0,VALID,21.7883,VALID,306,VALID,0.830859,
2010-03-08, 01:10:04,VALID,918.184,VALID,0,VALID,95.2775,VALID,0,VALID,21.7493,VALID,305,VALID,0.577734,
2010-03-08, 01:11:04,VALID,918.191,VALID,0,VALID,95.3994,VALID,0,VALID,21.7298,VALID,248,VALID,1.18867,
2010-03-08, 01:12:04,VALID,918.195,VALID,0,VALID,95.5367,VALID,0,VALID,21.7103,VALID,262,VALID,0.660937,
2010-03-08, 01:13:04,VALID,918.193,VALID,0,VALID,95.6357,VALID,0.107441,VALID,21.6891,VALID,262,VALID,0.646875,
2010-03-08, 01:14:04,VALID,918.192,VALID,0,VALID,95.6967,VALID,0,VALID,21.7103,VALID,262,VALID,0.386719,
2010-03-08, 01:15:04,VALID,918.178,VALID,0,VALID,95.7577,VALID,0.107441,VALID,21.7103,VALID,262,VALID,0.432031,
2010-03-08, 01:16:04,VALID,918.131,VALID,0,VALID,95.7958,VALID,0.107441,VALID,21.6908,VALID,262,VALID,0.438672,
2010-03-08, 01:17:04,VALID,918.116,VALID,0,VALID,95.6662,VALID,0.107441,VALID,21.6713,VALID,262,VALID,0.567187,
2010-03-08, 01:18:04,VALID,918.077,VALID,0,VALID,95.7577,VALID,0,VALID,21.6713,VALID,262,VALID,0.512109,
2010-03-08, 01:19:04,VALID,918.024,VALID,0,VALID,95.8263,VALID,0.107441,VALID,21.6501,VALID,262,VALID,0.273438,
2010-03-08, 01:20:04,VALID,918.012,VALID,0,VALID,95.8035,VALID,0.107441,VALID,21.6306,VALID,262,VALID,0.161328,
2010-03-08, 01:21:04,VALID,917.974,VALID,0,VALID,95.8492,VALID,0.107441,VALID,21.6518,VALID,262,VALID,0.0449219,
2010-03-08, 01:22:04,VALID,917.99,VALID,0,VALID,95.8797,VALID,0.107441,VALID,21.6696,VALID,262,VALID,0,
2010-03-08, 01:23:04,VALID,917.98,VALID,0,VALID,95.8568,VALID,0,VALID,21.6908,VALID,262,VALID,0.294141,
2010-03-08, 01:24:04,VALID,917.965,VALID,0,VALID,95.8873,VALID,0.107441,VALID,21.6891,VALID,262,VALID,0.331641,
2010-03-08, 01:25:04,VALID,917.947,VALID,0,VALID,95.9178,VALID,0.107441,VALID,21.7298,VALID,262,VALID,0.235547,
2010-03-08, 01:26:04,VALID,917.923,VALID,0,VALID,95.8721,VALID,0.107441,VALID,21.7087,VALID,262,VALID,0.752734,
2010-03-08, 01:27:04,VALID,917.927,VALID,0,VALID,95.8645,VALID,0.107441,VALID,21.751,VALID,262,VALID,0.247266,
2010-03-08, 01:28:04,VALID,917.905,VALID,0,VALID,95.895,VALID,0,VALID,21.7493,VALID,262,VALID,0,
2010-03-08, 01:29:04,VALID,917.907,VALID,0,VALID,95.7196,VALID,0.107441,VALID,21.7298,VALID,262,VALID,0.492578,
2010-03-08, 01:30:04,VALID,917.912,VALID,0,VALID,95.7501,VALID,0.107441,VALID,21.7688,VALID,262,VALID,0.476172,
2010-03-08, 01:31:04,VALID,917.898,VALID,0,VALID,95.773,VALID,0,VALID,21.7688,VALID,262,VALID,0.410156,
2010-03-08, 01:32:04,VALID,917.936,VALID,0,VALID,95.6891,VALID,0.107441,VALID,21.7688,VALID,262,VALID,0.126953,
2010-03-08, 01:33:04,VALID,917.898,VALID,0,VALID,95.529,VALID,0.107441,VALID,21.7477,VALID,262,VALID,0,
2010-03-08, 01:34:04,VALID,917.88,VALID,0,VALID,95.3766,VALID,0.107441,VALID,21.7688,VALID,262,VALID,0.380078,
2010-03-08, 01:35:04,VALID,917.874,VALID,0,VALID,95.2393,VALID,0.107441,VALID,21.7688,VALID,262,VALID,0.188281,
2010-03-08, 01:36:04,VALID,917.87,VALID,0,VALID,95.1783,VALID,0.107441,VALID,21.7688,VALID,262,VALID,0.245312,
2010-03-08, 01:37:04,VALID,917.863,VALID,0,VALID,95.1555,VALID,0.107441,VALID,21.7688,VALID,262,VALID,0.145313,
2010-03-08, 01:38:04,VALID,917.862,VALID,0,VALID,95.0792,VALID,0.107441,VALID,21.7493,VALID,262,VALID,0.354688,
2010-03-08, 01:39:04,VALID,917.871,VALID,0,VALID,95.0259,VALID,0.107441,VALID,21.7477,VALID,262,VALID,0,
2010-03-08, 01:40:04,VALID,917.865,VALID,0,VALID,94.8124,VALID,0,VALID,21.7688,VALID,262,VALID,0.28125,
2010-03-08, 01:41:04,VALID,917.884,VALID,0,VALID,94.8277,VALID,0.107441,VALID,21.7688,VALID,262,VALID,0.446484,
2010-03-08, 01:42:04,VALID,917.877,VALID,0,VALID,94.8277,VALID,0,VALID,21.7282,VALID,262,VALID,0.397266,
2010-03-08, 01:43:04,VALID,917.902,VALID,0,VALID,94.8505,VALID,0.107441,VALID,21.7493,VALID,262,VALID,0.209375,
2010-03-08, 01:44:04,VALID,917.877,VALID,0,VALID,94.8277,VALID,0.107441,VALID,21.7493,VALID,262,VALID,0.266016,
2010-03-08, 01:45:04,VALID,917.911,VALID,0,VALID,94.7972,VALID,0.107441,VALID,21.7493,VALID,262,VALID,0.103906,
2010-03-08, 01:46:04,VALID,917.903,VALID,0,VALID,94.881,VALID,0.107441,VALID,21.7493,VALID,262,VALID,0.171094,
2010-03-08, 01:47:04,VALID,917.87,VALID,0,VALID,94.9115,VALID,0,VALID,21.7688,VALID,262,VALID,0.103125,
2010-03-08, 01:48:04,VALID,917.861,VALID,0,VALID,94.7591,VALID,0.107441,VALID,21.7298,VALID,262,VALID,0.223828,
2010-03-08, 01:49:04,VALID,917.858,VALID,0,VALID,94.6447,VALID,0.107441,VALID,21.7298,VALID,262,VALID,0,
2010-03-08, 01:50:04,VALID,917.797,VALID,0,VALID,94.5685,VALID,0,VALID,21.7103,VALID,262,VALID,0,
2010-03-08, 01:51:04,VALID,917.816,VALID,0,VALID,94.5532,VALID,0.107441,VALID,21.7103,VALID,262,VALID,0,
2010-03-08, 01:52:04,VALID,917.791,VALID,0,VALID,94.5456,VALID,0.107441,VALID,21.7298,VALID,262,VALID,0,
2010-03-08, 01:53:04,VALID,917.786,VALID,0,VALID,94.5609,VALID,0.107441,VALID,21.7705,VALID,262,VALID,0,
2010-03-08, 01:54:04,VALID,917.769,VALID,0,VALID,94.3474,VALID,0,VALID,21.7103,VALID,262,VALID,0,
2010-03-08, 01:55:04,VALID,917.789,VALID,0,VALID,94.1797,VALID,0,VALID,21.6713,VALID,262,VALID,0,
2010-03-08, 01:56:04,VALID,917.76,VALID,0,VALID,94.2178,VALID,0.107441,VALID,21.6501,VALID,262,VALID,0.347656,
2010-03-08, 01:57:04,VALID,917.79,VALID,0,VALID,94.3245,VALID,0,VALID,21.6518,VALID,262,VALID,0.444531,
2010-03-08, 01:58:04,VALID,917.743,VALID,0,VALID,94.3017,VALID,0,VALID,21.6323,VALID,262,VALID,0.583594,
2010-03-08, 01:59:04,VALID,917.762,VALID,0,VALID,94.4541,VALID,0,VALID,21.5932,VALID,262,VALID,0.479297,
2010-03-08, 02:00:04,VALID,917.748,VALID,0,VALID,94.6905,VALID,0,VALID,21.6144,VALID,262,VALID,0.475391,
2010-03-08, 02:01:04,VALID,917.728,VALID,0,VALID,94.7972,VALID,0,VALID,21.5737,VALID,262,VALID,0.548437,
2010-03-08, 02:02:04,VALID,917.74,VALID,0,VALID,94.8124,VALID,0,VALID,21.5526,VALID,262,VALID,0.666797,
2010-03-08, 02:03:04,VALID,917.72,VALID,0,VALID,94.8429,VALID,0.107441,VALID,21.5542,VALID,262,VALID,0.373828,
2010-03-08, 02:04:04,VALID,917.643,VALID,0,VALID,94.8887,VALID,0,VALID,21.5737,VALID,262,VALID,0.294531,
2010-03-08, 02:05:04,VALID,917.622,VALID,0,VALID,94.7667,VALID,0,VALID,21.5737,VALID,262,VALID,0.308984,
2010-03-08, 02:06:04,VALID,917.574,VALID,0,VALID,94.7819,VALID,0.107441,VALID,21.5526,VALID,262,VALID,0,
2010-03-08, 02:07:04,VALID,917.606,VALID,0,VALID,94.8429,VALID,0,VALID,21.5737,VALID,262,VALID,0.236719,
2010-03-08, 02:08:04,VALID,917.548,VALID,0,VALID,94.8353,VALID,0,VALID,21.5542,VALID,262,VALID,0.332031,
2010-03-08, 02:09:04,VALID,917.513,VALID,0,VALID,94.8505,VALID,0,VALID,21.5542,VALID,262,VALID,0.508203,
2010-03-08, 02:10:04,VALID,917.481,VALID,0,VALID,94.8353,VALID,0,VALID,21.5152,VALID,262,VALID,0.578516,
2010-03-08, 02:11:05,VALID,917.423,VALID,0,VALID,94.8429,VALID,0,VALID,21.5363,VALID,262,VALID,0.683594,
2010-03-08, 02:12:05,VALID,917.439,VALID,0,VALID,94.9268,VALID,0,VALID,21.4957,VALID,262,VALID,0.473437,
2010-03-08, 02:13:05,VALID,917.397,VALID,0,VALID,94.8505,VALID,0,VALID,21.4762,VALID,262,VALID,0.739062,
2010-03-08, 02:14:05,VALID,917.438,VALID,0,VALID,94.9801,VALID,0,VALID,21.4957,VALID,262,VALID,0.416797,
2010-03-08, 02:15:05,VALID,917.409,VALID,0,VALID,94.9649,VALID,0,VALID,21.4762,VALID,262,VALID,0.514063,
2010-03-08, 02:16:05,VALID,917.425,VALID,0,VALID,94.8658,VALID,0,VALID,21.4372,VALID,262,VALID,1.02813,
2010-03-08, 02:17:05,VALID,917.413,VALID,0,VALID,94.8658,VALID,0,VALID,21.4372,VALID,262,VALID,0.427734,
2010-03-08, 02:18:05,VALID,917.431,VALID,0,VALID,94.7743,VALID,0,VALID,21.4193,VALID,262,VALID,0.660547,
2010-03-08, 02:19:05,VALID,917.423,VALID,0,VALID,94.7286,VALID,0,VALID,21.4372,VALID,262,VALID,0.453906,
2010-03-08, 02:20:05,VALID,917.383,VALID,0,VALID,94.7438,VALID,0,VALID,21.3981,VALID,262,VALID,0.438281,
2010-03-08, 02:21:05,VALID,917.382,VALID,0,VALID,94.7591,VALID,0,VALID,21.4177,VALID,262,VALID,0.602344,
2010-03-08, 02:22:05,VALID,917.384,VALID,0,VALID,94.8277,VALID,0,VALID,21.3981,VALID,262,VALID,0.421875,
2010-03-08, 02:23:05,VALID,917.373,VALID,0,VALID,94.7972,VALID,0,VALID,21.3981,VALID,262,VALID,0.518359,
2010-03-08, 02:24:05,VALID,917.371,VALID,0,VALID,94.8277,VALID,0,VALID,21.3786,VALID,262,VALID,0.765234,
2010-03-08, 02:25:05,VALID,917.365,VALID,0,VALID,94.9192,VALID,0,VALID,21.3803,VALID,262,VALID,0.514453,
2010-03-08, 02:26:05,VALID,917.365,VALID,0,VALID,95.003,VALID,0,VALID,21.3396,VALID,262,VALID,0.400781,
2010-03-08, 02:27:05,VALID,917.364,VALID,0,VALID,95.0792,VALID,0,VALID,21.3608,VALID,262,VALID,0.452344,
2010-03-08, 02:28:05,VALID,917.365,VALID,0,VALID,95.1479,VALID,0,VALID,21.3608,VALID,262,VALID,0.169141,
2010-03-08, 02:29:05,VALID,917.352,VALID,0,VALID,95.1783,VALID,0,VALID,21.3396,VALID,262,VALID,0.6375,
2010-03-08, 02:30:05,VALID,917.338,VALID,0,VALID,95.2241,VALID,0,VALID,21.3006,VALID,262,VALID,0.720703,
2010-03-08, 02:31:05,VALID,917.323,VALID,0,VALID,95.2927,VALID,0,VALID,21.3201,VALID,262,VALID,0.492188,
2010-03-08, 02:32:05,VALID,917.257,VALID,0,VALID,95.3384,VALID,0,VALID,21.3201,VALID,262,VALID,0.861328,
2010-03-08, 02:33:05,VALID,917.26,VALID,0,VALID,95.4528,VALID,0,VALID,21.3022,VALID,262,VALID,0.538281,
2010-03-08, 02:34:05,VALID,917.27,VALID,0,VALID,95.5671,VALID,0,VALID,21.3022,VALID,262,VALID,0.211328,
2010-03-08, 02:35:05,VALID,917.255,VALID,0,VALID,95.6129,VALID,0,VALID,21.3022,VALID,262,VALID,0.310937,
2010-03-08, 02:36:05,VALID,917.256,VALID,0,VALID,95.6357,VALID,0,VALID,21.3217,VALID,262,VALID,0.282813,
2010-03-08, 02:37:05,VALID,917.265,VALID,0,VALID,95.6815,VALID,0,VALID,21.3022,VALID,262,VALID,0.3125,
2010-03-08, 02:38:05,VALID,917.279,VALID,0,VALID,95.6205,VALID,0,VALID,21.3217,VALID,262,VALID,0.717578,
2010-03-08, 02:39:05,VALID,917.308,VALID,0,VALID,95.6662,VALID,0,VALID,21.3412,VALID,262,VALID,0.537109,
2010-03-08, 02:40:05,VALID,917.281,VALID,0,VALID,95.712,VALID,0,VALID,21.3396,VALID,262,VALID,0.15,
2010-03-08, 02:41:05,VALID,917.283,VALID,0,VALID,95.7196,VALID,0,VALID,21.3591,VALID,262,VALID,0.577344,
2010-03-08, 02:42:05,VALID,917.283,VALID,0,VALID,95.5976,VALID,0,VALID,21.3608,VALID,262,VALID,0.567578,
2010-03-08, 02:43:05,VALID,917.276,VALID,0,VALID,95.5443,VALID,0,VALID,21.3591,VALID,262,VALID,0.508984,
2010-03-08, 02:44:05,VALID,917.293,VALID,0,VALID,95.529,VALID,0,VALID,21.3412,VALID,262,VALID,0.428906,
2010-03-08, 02:45:05,VALID,917.268,VALID,0,VALID,95.5062,VALID,0,VALID,21.3201,VALID,262,VALID,0.667969,
2010-03-08, 02:46:05,VALID,917.279,VALID,0,VALID,95.651,VALID,0,VALID,21.3608,VALID,262,VALID,0.545703,
2010-03-08, 02:47:05,VALID,917.233,VALID,0,VALID,95.6129,VALID,0,VALID,21.3201,VALID,262,VALID,0.50625,
2010-03-08, 02:48:05,VALID,917.251,VALID,0,VALID,95.5748,VALID,0,VALID,21.2811,VALID,262,VALID,0.460547,
2010-03-08, 02:49:05,VALID,917.238,VALID,0,VALID,95.6053,VALID,0,VALID,21.3022,VALID,262,VALID,0.703125,
2010-03-08, 02:50:05,VALID,917.213,VALID,0,VALID,95.6357,VALID,0,VALID,21.2421,VALID,262,VALID,0.7125,
2010-03-08, 02:51:05,VALID,917.209,VALID,0,VALID,95.7501,VALID,0,VALID,21.2421,VALID,262,VALID,0.7125,
2010-03-08, 02:52:05,VALID,917.206,VALID,0,VALID,95.834,VALID,0,VALID,21.2437,VALID,262,VALID,0.564062,
2010-03-08, 02:53:05,VALID,917.245,VALID,0,VALID,95.9102,VALID,0,VALID,21.2632,VALID,262,VALID,0.653906,
2010-03-08, 02:54:05,VALID,917.238,VALID,0,VALID,95.8873,VALID,0,VALID,21.2226,VALID,262,VALID,0.894922,
2010-03-08, 02:55:05,VALID,917.224,VALID,0,VALID,95.9331,VALID,0,VALID,21.2437,VALID,262,VALID,0.825,
2010-03-08, 02:56:05,VALID,917.191,VALID,0,VALID,95.9407,VALID,0,VALID,21.2031,VALID,262,VALID,0.824609,
2010-03-08, 02:57:05,VALID,917.209,VALID,0,VALID,95.9407,VALID,0,VALID,21.2031,VALID,262,VALID,0.827734,
2010-03-08, 02:58:05,VALID,917.2,VALID,0,VALID,95.8035,VALID,0,VALID,21.164,VALID,262,VALID,0.772266,
2010-03-08, 02:59:05,VALID,917.214,VALID,0,VALID,95.6739,VALID,0,VALID,21.1852,VALID,262,VALID,0.680078,
2010-03-08, 03:00:05,VALID,917.226,VALID,0,VALID,95.6129,VALID,0,VALID,21.1852,VALID,262,VALID,0.2125,
2010-03-08, 03:01:05,VALID,917.204,VALID,0,VALID,95.529,VALID,0,VALID,21.1836,VALID,262,VALID,0.214062,
2010-03-08, 03:02:05,VALID,917.223,VALID,0,VALID,95.3766,VALID,0,VALID,21.1836,VALID,262,VALID,0.270312,
2010-03-08, 03:03:05,VALID,917.26,VALID,0,VALID,95.247,VALID,0,VALID,21.2242,VALID,262,VALID,0,
2010-03-08, 03:04:05,VALID,917.246,VALID,0,VALID,95.2012,VALID,0,VALID,21.2632,VALID,262,VALID,0,
2010-03-08, 03:05:05,VALID,917.274,VALID,0,VALID,95.1326,VALID,0,VALID,21.2616,VALID,262,VALID,0,
2010-03-08, 03:06:05,VALID,917.301,VALID,0,VALID,95.1936,VALID,0,VALID,21.3022,VALID,262,VALID,0,
2010-03-08, 03:07:05,VALID,917.257,VALID,0,VALID,94.881,VALID,0,VALID,21.2616,VALID,262,VALID,0.0980469,
2010-03-08, 03:08:05,VALID,917.274,VALID,0,VALID,94.7896,VALID,0,VALID,21.3217,VALID,262,VALID,0.315625,
2010-03-08, 03:09:05,VALID,917.237,VALID,0,VALID,94.8048,VALID,0.107441,VALID,21.3006,VALID,262,VALID,0.376172,
2010-03-08, 03:10:05,VALID,917.221,VALID,0,VALID,94.8277,VALID,0,VALID,21.2811,VALID,262,VALID,0.492188,
2010-03-08, 03:11:05,VALID,917.188,VALID,0,VALID,94.9192,VALID,0,VALID,21.2811,VALID,262,VALID,0.372266,
2010-03-08, 03:12:05,VALID,917.177,VALID,0,VALID,94.8887,VALID,0,VALID,21.2811,VALID,262,VALID,0.519531,
2010-03-08, 03:13:05,VALID,917.147,VALID,0,VALID,94.9039,VALID,0,VALID,21.2616,VALID,262,VALID,0.788281,
2010-03-08, 03:14:05,VALID,917.157,VALID,0,VALID,95.0411,VALID,0,VALID,21.2632,VALID,262,VALID,0.636328,
2010-03-08, 03:15:05,VALID,917.125,VALID,0,VALID,95.1707,VALID,0,VALID,21.2437,VALID,262,VALID,0.658203,
2010-03-08, 03:16:05,VALID,917.115,VALID,0,VALID,95.1326,VALID,0,VALID,21.2047,VALID,262,VALID,0.615625,
2010-03-08, 03:17:05,VALID,917.074,VALID,0,VALID,95.1783,VALID,0,VALID,21.1836,VALID,262,VALID,0.673047,
2010-03-08, 03:18:05,VALID,917.046,VALID,0,VALID,95.125,VALID,0,VALID,21.1445,VALID,262,VALID,0.764453,
2010-03-08, 03:19:05,VALID,917.031,VALID,0,VALID,95.0716,VALID,0,VALID,21.125,VALID,262,VALID,0.501172,
2010-03-08, 03:20:05,VALID,917.017,VALID,0,VALID,95.0792,VALID,0,VALID,21.1055,VALID,262,VALID,0.4,
2010-03-08, 03:21:05,VALID,916.988,VALID,0,VALID,95.1402,VALID,0,VALID,21.125,VALID,262,VALID,0.183203,
2010-03-08, 03:22:05,VALID,916.977,VALID,0,VALID,95.125,VALID,0,VALID,21.125,VALID,262,VALID,0.423828,
2010-03-08, 03:23:05,VALID,916.981,VALID,0,VALID,95.1097,VALID,0,VALID,21.1071,VALID,262,VALID,0.430469,
2010-03-08, 03:24:05,VALID,916.979,VALID,0,VALID,95.1936,VALID,0,VALID,21.0665,VALID,262,VALID,0.6875,
2010-03-08, 03:25:05,VALID,916.974,VALID,0,VALID,95.2165,VALID,0,VALID,21.0681,VALID,262,VALID,0.737891,
2010-03-08, 03:26:05,VALID,916.969,VALID,0,VALID,95.2698,VALID,0,VALID,20.9901,VALID,262,VALID,0.812109,
2010-03-08, 03:27:05,VALID,916.973,VALID,0,VALID,95.3689,VALID,0,VALID,20.9706,VALID,262,VALID,1.05039,
2010-03-08, 03:28:05,VALID,916.921,VALID,0,VALID,95.4909,VALID,0.107441,VALID,20.9105,VALID,262,VALID,0.983984,
2010-03-08, 03:29:05,VALID,916.919,VALID,0,VALID,95.6967,VALID,0,VALID,20.9105,VALID,262,VALID,1.14922,
2010-03-08, 03:30:05,VALID,916.92,VALID,0,VALID,95.8263,VALID,0,VALID,20.912,VALID,262,VALID,0.951172,
2010-03-08, 03:31:05,VALID,916.906,VALID,0,VALID,96.0093,VALID,0,VALID,20.9316,VALID,262,VALID,1.17031,
2010-03-08, 03:32:05,VALID,916.852,VALID,0,VALID,96.0245,VALID,0.107441,VALID,20.9105,VALID,262,VALID,1.09102,
2010-03-08, 03:33:05,VALID,916.812,VALID,0,VALID,96.0779,VALID,0,VALID,20.8925,VALID,262,VALID,1.15156,
2010-03-08, 03:34:05,VALID,916.776,VALID,0,VALID,96.0855,VALID,0,VALID,20.873,VALID,262,VALID,1.10859,
2010-03-08, 03:35:05,VALID,916.786,VALID,0,VALID,96.0703,VALID,0,VALID,20.8324,VALID,262,VALID,0.978906,
2010-03-08, 03:36:05,VALID,916.757,VALID,0,VALID,96.0627,VALID,0,VALID,20.834,VALID,262,VALID,0.991797,
2010-03-08, 03:37:05,VALID,916.737,VALID,0,VALID,96.0093,VALID,0,VALID,20.7755,VALID,262,VALID,1.07187,
2010-03-08, 03:38:05,VALID,916.725,VALID,0,VALID,95.9102,VALID,0.107441,VALID,20.7365,VALID,262,VALID,0.763281,
2010-03-08, 03:39:05,VALID,916.732,VALID,0,VALID,95.895,VALID,0,VALID,20.717,VALID,262,VALID,0.926953,
2010-03-08, 03:40:05,VALID,916.718,VALID,0,VALID,95.9178,VALID,0,VALID,20.717,VALID,262,VALID,0.845703,
2010-03-08, 03:41:05,VALID,916.741,VALID,0,VALID,95.9102,VALID,0,VALID,20.6975,VALID,262,VALID,0.835156,
2010-03-08, 03:42:05,VALID,916.715,VALID,0,VALID,95.9407,VALID,0,VALID,20.6764,VALID,262,VALID,0.713281,